Location: Waco, TX
(31.5480°N, 97.1670°W)
Time: 13:35:09
(UTC-05:00)

ISS - Pass Details

Date: 05 May 2021
Orbit: 417 x 422 km, 51.6° (Epoch: 15 May)

Event Time Altitude Azimuth Distance (km) Brightness Sun altitude
Rises 09:09:01 0° 319° (NW) 2,369 -0.3 30.3°
Reaches altitude 10° 09:11:09 10° 324° (NW) 1,503 -1.2 30.8°
Maximum altitude 09:14:28 54° 43° (NE) 514 -2.4 31.5°
Drops below altitude 10° 09:17:46 10° 122° (ESE) 1,496 0.0 32.2°
Sets 09:19:53 0° 127° (SE) 2,357 0.7 32.7°
